South Lake Tahoe, CA

12:33 AM PDT on March 29, 2017 (GMT -0700)
Lake Tahoe

Weather History for KTVL - August, 2013

Change the Weather History Date:

Monday, August 5, 2013

  Actual Average Record
Temperature  
Mean Temperature 61 °F 62 °F  
Max Temperature 82 °F 82 °F 91 °F (1990)
Min Temperature 40 °F 42 °F 33 °F (1981)
Degree Days  
Heating Degree Days 4 4  
Month to date heating degree days 30 20  
Since 1 June heating degree days 261 468  
Since 1 July heating degree days 67 158  
Cooling Degree Days 0 1  
Month to date cooling degree days 0 5  
Year to date cooling degree days 89 24  
Since 1 June cooling degree days 89 24  
Growing Degree Days 11 (Base 50)    
Moisture  
Dew Point 33 °F    
Average Humidity 42    
Maximum Humidity 70    
Minimum Humidity 14    
Precipitation  
Precipitation 0.00 in - 0.43 in (1973)
Month to date precipitation 0.00  
Year to date precipitation 5.93  
Sea Level Pressure  
Sea Level Pressure 30.05 in    
Wind  
Wind Speed 3 mph (SSW)    
Max Wind Speed 14 mph    
Max Gust Speed 20 mph    
Visibility 10 miles    
Events      
T = Trace of Precipitation, MM = Missing Value Source: NWS Daily Summary

Daily Weather History Graph

Daily Weather History Graph

Search for Another Location

Airport or City:

Trip Planner

Search our weather history database for the weather conditions in past years. The results will help you decide how hot, cold, wet, or windy it might be!

Date:

Astronomy

Aug. 05, 2013 Rise Set
Actual Time 6:04 AM PDT 8:06 PM PDT
Civil Twilight 5:35 AM PDT 8:35 PM PDT
Nautical Twilight 4:59 AM PDT 9:11 PM PDT
Astronomical Twilight 4:21 AM PDT 9:49 PM PDT
Moon 5:04 AM PDT (8/5) 7:10 PM PDT (8/5)
Length of Visible Light 15h 00m
Length of Day
14h 01m
Waning Crescent, 1% of the Moon is Illuminated
Aug 5
Waning Crescent
Aug 6
New
Aug 14
First Quarter
Aug 20
Full
Aug 28
Last Quarter

Hourly Weather History & Observations

Time (PDT) Temp. Windchill Dew Point Humidity Pressure Visibility Wind Dir Wind Speed Gust Speed Precip Events Conditions
12:53 AM 50.0 °F - 36.0 °F 59% 30.06 in 10.0 mi Calm Calm - N/A   Clear
1:53 AM 48.0 °F - 36.0 °F 63% 30.06 in 10.0 mi Calm Calm - N/A   Clear
2:53 AM 46.0 °F - 35.1 °F 66% 30.06 in 10.0 mi Calm Calm - N/A   Clear
3:53 AM 44.1 °F - 33.1 °F 65% 30.06 in 10.0 mi Calm Calm - N/A   Clear
4:53 AM 42.1 °F - 33.1 °F 70% 30.06 in 10.0 mi Calm Calm - N/A   Clear
5:53 AM 41.0 °F 39.0 °F 32.0 °F 70% 30.09 in 10.0 mi South 3.5 mph - N/A   Clear
6:53 AM 41.0 °F 38.0 °F 32.0 °F 70% 30.10 in 10.0 mi South 4.6 mph - N/A   Clear
7:53 AM 51.1 °F - 30.0 °F 44% 30.10 in 10.0 mi South 3.5 mph - N/A   Clear
8:53 AM 63.0 °F - 30.0 °F 29% 30.06 in 10.0 mi Calm Calm - N/A   Clear
9:53 AM 71.1 °F - 27.0 °F 19% 30.04 in 10.0 mi Calm Calm - N/A   Clear
10:53 AM 73.9 °F - 36.0 °F 25% 30.06 in 10.0 mi Variable 5.8 mph - N/A   Clear
11:53 AM 75.9 °F - 34.0 °F 22% 30.05 in 10.0 mi Variable 5.8 mph - N/A   Clear
12:53 PM 78.1 °F - 27.0 °F 15% 30.05 in 10.0 mi NNE 11.5 mph - N/A   Clear
1:53 PM 80.1 °F - 30.0 °F 16% 30.04 in 10.0 mi Variable 6.9 mph - N/A   Clear
2:53 PM 80.1 °F - 27.0 °F 14% 30.04 in 10.0 mi NNE 10.4 mph - N/A   Clear
3:53 PM 81.0 °F - 28.0 °F 14% 30.02 in 10.0 mi South 11.5 mph 18.4 mph N/A   Clear
4:53 PM 80.1 °F - 28.9 °F 15% 30.02 in 10.0 mi SSW 9.2 mph - N/A   Clear
5:53 PM 78.1 °F - 32.0 °F 19% 30.03 in 10.0 mi SSW 9.2 mph 17.3 mph N/A   Clear
6:53 PM 73.9 °F - 35.1 °F 24% 30.05 in 10.0 mi SSW 8.1 mph - N/A   Overcast
7:53 PM 69.1 °F - 37.0 °F 31% 30.05 in 10.0 mi Calm Calm - N/A   Partly Cloudy
8:53 PM 62.1 °F - 37.9 °F 41% 30.04 in 10.0 mi Calm Calm - N/A   Clear
9:53 PM 61.0 °F - 37.0 °F 41% 30.04 in 10.0 mi Calm Calm - N/A   Clear
10:53 PM 54.0 °F - 37.0 °F 53% 30.05 in 10.0 mi Calm Calm - N/A   Clear
11:53 PM 52.0 °F - 37.9 °F 59% 30.06 in 10.0 mi SSW 3.5 mph - N/A   Clear